Weather History for KPHF - September, 2013

Change the Weather History Date:

Sunday, September 1, 2013

  Actual Average Record
Temperature  
Mean Temperature 85 °F -  
Max Temperature 93 °F 85 °F 97 °F (1980)
Min Temperature 77 °F 69 °F 55 °F (2011)
Cooling Degree Days 20    
Growing Degree Days 35 (Base 50)    
Moisture  
Dew Point 71 °F    
Average Humidity 67    
Maximum Humidity 79    
Minimum Humidity 49    
Precipitation  
Precipitation 0.15 in - - ()
Sea Level Pressure  
Sea Level Pressure 29.85 in    
Wind  
Wind Speed 10 mph (SW)    
Max Wind Speed 21 mph    
Max Gust Speed 48 mph    
Visibility 10 miles    
Events Rain    
Averages and records for this station are not official NWS values.
T = Trace of Precipitation, MM = Missing Value Source: NWS Daily Summary

Daily Weather History Graph

Daily Weather History Graph

Search for Another Location

Airport or City:

Trip Planner

Search our weather history database for the weather conditions in past years. The results will help you decide how hot, cold, wet, or windy it might be!

Date:

Astronomy

Sep. 01, 2013 Rise Set
Actual Time 6:36 AM EDT 7:34 PM EDT
Civil Twilight 6:10 AM EDT 8:00 PM EDT
Nautical Twilight 5:38 AM EDT 8:32 PM EDT
Astronomical Twilight 5:05 AM EDT 9:04 PM EDT
Moon 2:59 AM EDT (9/1) 5:07 PM EDT (9/1)
Length of Visible Light 13h 50m
Length of Day
12h 57m
Waning Crescent, 14% of the Moon is Illuminated
Sep 1
Waning Crescent
Sep 5
New
Sep 12
First Quarter
Sep 19
Full
Sep 26
Last Quarter

Hourly Weather History & Observations

Time (EDT) Temp. Heat Index Dew Point Humidity Pressure Visibility Wind Dir Wind Speed Gust Speed Precip Events Conditions
12:54 AM 80.1 °F 83.2 °F 70.0 °F 71% 29.89 in 10.0 mi SSW 11.5 mph - N/A   Clear
1:54 AM 80.1 °F 83.6 °F 71.1 °F 74% 29.88 in 10.0 mi SSW 10.4 mph - N/A   Clear
2:54 AM 79.0 °F - 70.0 °F 74% 29.87 in 10.0 mi SW 9.2 mph - N/A   Clear
3:54 AM 79.0 °F - 70.0 °F 74% 29.85 in 10.0 mi SSW 10.4 mph - N/A   Clear
4:54 AM 78.1 °F - 70.0 °F 76% 29.85 in 10.0 mi SW 6.9 mph - N/A   Clear
5:54 AM 77.0 °F - 70.0 °F 79% 29.86 in 10.0 mi SW 6.9 mph - N/A   Mostly Cloudy
6:54 AM 77.0 °F - 70.0 °F 79% 29.87 in 10.0 mi SSW 5.8 mph - N/A   Clear
7:54 AM 79.0 °F - 71.1 °F 77% 29.88 in 10.0 mi SW 8.1 mph - N/A   Clear
8:54 AM 81.0 °F 85.2 °F 72.0 °F 74% 29.88 in 10.0 mi SSW 5.8 mph - N/A   Partly Cloudy
9:54 AM 82.9 °F 88.0 °F 72.0 °F 69% 29.88 in 10.0 mi SW 5.8 mph - N/A   Mostly Cloudy
10:54 AM 86.0 °F 93.0 °F 73.0 °F 65% 29.88 in 10.0 mi SW 6.9 mph - N/A   Partly Cloudy
11:54 AM 90.0 °F 97.9 °F 73.0 °F 57% 29.87 in 10.0 mi WSW 11.5 mph - N/A   Partly Cloudy
12:18 PM 91.4 °F 100.1 °F 73.4 °F 55% 29.86 in 10.0 mi SW 12.7 mph 20.7 mph N/A   Mostly Cloudy
12:40 PM 91.4 °F 100.1 °F 73.4 °F 55% 29.86 in 10.0 mi SW 11.5 mph 20.7 mph N/A   Scattered Clouds
12:54 PM 91.0 °F 99.3 °F 73.0 °F 55% 29.85 in 10.0 mi SSW 12.7 mph 16.1 mph N/A   Scattered Clouds
1:54 PM 93.0 °F 100.7 °F 72.0 °F 50% 29.84 in 10.0 mi SW 9.2 mph - N/A   Clear
2:54 PM 93.0 °F 100.1 °F 71.1 °F 49% 29.82 in 10.0 mi SW 8.1 mph - N/A   Clear
3:54 PM 93.0 °F 101.9 °F 73.0 °F 52% 29.80 in 10.0 mi SSW 12.7 mph - N/A   Clear
4:54 PM 91.9 °F 99.5 °F 72.0 °F 52% 29.79 in 10.0 mi South 9.2 mph - N/A   Clear
5:49 PM 82.4 °F 84.6 °F 66.2 °F 58% 29.82 in 10.0 mi SW 20.7 mph 48.3 mph N/A   Squalls
5:54 PM 81.0 °F 83.8 °F 68.0 °F 65% 29.82 in 10.0 mi SW 15.0 mph 27.6 mph N/A   Mostly Cloudy
6:09 PM 78.8 °F - 69.8 °F 74% 29.81 in 1.8 mi SSW 17.3 mph - 0.15 in Rain Heavy Rain
6:17 PM 78.8 °F - 69.8 °F 74% 29.81 in 3.0 mi SSW 12.7 mph - 0.15 in Rain Light Rain
6:54 PM 80.1 °F 83.6 °F 71.1 °F 74% 29.83 in 10.0 mi SSW 9.2 mph - 0.15 in   Scattered Clouds
7:54 PM 79.0 °F - 69.1 °F 72% 29.81 in 10.0 mi SW 8.1 mph - N/A   Clear
8:54 PM 79.0 °F - 69.1 °F 72% 29.83 in 10.0 mi WSW 4.6 mph - N/A   Clear
9:54 PM 79.0 °F - 70.0 °F 74% 29.84 in 10.0 mi WSW 10.4 mph - N/A   Partly Cloudy
10:54 PM 79.0 °F - 68.0 °F 69% 29.85 in 10.0 mi WSW 12.7 mph 21.9 mph N/A   Partly Cloudy
11:54 PM 78.1 °F - 69.1 °F 74% 29.83 in 10.0 mi SSW 12.7 mph - 0.00 in   Clear